Terminal Aerodrome Forecast
Issued by NWS

Home | Current Version | Previous Version | Text Only | Print | Product List | Glossary On
Versions: 1 2 3 4 5 6 7 8 9 10 11 12 13 14 15 16 17 18 19 20 21 22 23 24 25 26 27 28 29 30 31 32 33 34 35 36 37 38 39
000
FTUS44 KHGX 290601 AAA
TAFCXO
TAF AMD
KCXO 290601Z 2906/3006 14014KT 6SM BR BKN020 WS020/17040KT
     FM291600 16015G25KT 6SM BR BKN020
     FM292200 16016G26KT 6SM HZ VCSH BKN015
      TEMPO 3005/3006 33020KT TSRA OVC012CB=

USA.gov is the U.S. government's official web portal to all federal, state and local government web resources and services.